Burlington, CO

12:52 PM MDT on September 24, 2017 (GMT -0600)
Kit Carson County

Weather History for KITR - July, 2013

Change the Weather History Date:

Tuesday, July 9, 2013

  Actual Average Record
Temperature  
Mean Temperature 82 °F 74 °F  
Max Temperature 101 °F 88 °F 105 °F (2002)
Min Temperature 63 °F 60 °F 45 °F (1959)
Cooling Degree Days 17    
Growing Degree Days 32 (Base 50)    
Moisture  
Dew Point 55 °F    
Average Humidity 43    
Maximum Humidity 73    
Minimum Humidity 18    
Precipitation  
Precipitation 0.00 in 0.12 in 1.75 in (2011)
Month to date precipitation 0.19 1.04  
Year to date precipitation 7.78 9.65  
Sea Level Pressure  
Sea Level Pressure 29.90 in    
Wind  
Wind Speed 10 mph (NNE)    
Max Wind Speed 17 mph    
Max Gust Speed 23 mph    
Visibility 10 miles    
Events      
T = Trace of Precipitation, MM = Missing Value Source: NWS Daily Summary

Daily Weather History Graph

Daily Weather History Graph

Search for Another Location

Airport or City:

Trip Planner

Search our weather history database for the weather conditions in past years. The results will help you decide how hot, cold, wet, or windy it might be!

Date:

Astronomy

Jul. 09, 2013 Rise Set
Actual Time 5:31 AM MDT 8:17 PM MDT
Civil Twilight 4:59 AM MDT 8:49 PM MDT
Nautical Twilight 4:19 AM MDT 9:28 PM MDT
Astronomical Twilight 3:34 AM MDT 10:13 PM MDT
Moon 6:56 AM MDT (7/9) 8:57 PM MDT (7/9)
Length of Visible Light 15h 49m
Length of Day
14h 46m
New Moon, 2% of the Moon is Illuminated
Jul 9
New Moon
Jul 15
First Quarter
Jul 22
Full
Jul 29
Last Quarter
Aug 6
New

Hourly Weather History & Observations

Time (MDT) Temp. Heat Index Dew Point Humidity Pressure Visibility Wind Dir Wind Speed Gust Speed Precip Events Conditions
12:53 AM 70.0 °F - 57.0 °F 63% 29.86 in 10.0 mi WNW 11.5 mph - N/A   Clear
1:53 AM 71.1 °F - 59.0 °F 66% 29.87 in 10.0 mi WSW 11.5 mph - N/A   Clear
2:53 AM 69.1 °F - 57.9 °F 68% 29.86 in 10.0 mi WSW 9.2 mph - N/A   Clear
3:53 AM 66.9 °F - 55.9 °F 68% 29.87 in 10.0 mi WNW 5.8 mph - N/A   Clear
4:53 AM 64.0 °F - 55.0 °F 73% 29.88 in 10.0 mi West 6.9 mph - N/A   Clear
5:53 AM 64.9 °F - 55.9 °F 73% 29.87 in 10.0 mi West 10.4 mph - N/A   Clear
6:53 AM 72.0 °F - 55.0 °F 55% 29.89 in 10.0 mi WNW 10.4 mph - N/A   Clear
7:53 AM 80.1 °F 79.9 °F 53.1 °F 39% 29.91 in 10.0 mi NW 9.2 mph - N/A   Clear
8:53 AM 87.1 °F 85.1 °F 54.0 °F 32% 29.92 in 10.0 mi NNW 6.9 mph - N/A   Clear
9:53 AM 90.0 °F 88.1 °F 55.9 °F 31% 29.92 in 10.0 mi NNW 10.4 mph - N/A   Clear
10:53 AM 93.0 °F 91.4 °F 55.9 °F 29% 29.93 in 10.0 mi NNE 10.4 mph - N/A   Clear
11:53 AM 97.0 °F - 48.9 °F 19% 29.92 in 10.0 mi Variable 5.8 mph - N/A   Clear
12:53 PM 98.1 °F - 48.9 °F 19% 29.92 in 10.0 mi North 9.2 mph 23.0 mph N/A   Partly Cloudy
1:53 PM 100.0 °F - 50.0 °F 18% 29.90 in 10.0 mi NE 6.9 mph - N/A   Partly Cloudy
2:53 PM 95.0 °F - 52.0 °F 23% 29.90 in 10.0 mi East 16.1 mph - N/A   Scattered Clouds
3:53 PM 95.0 °F - 52.0 °F 23% 29.89 in 10.0 mi ENE 11.5 mph - N/A   Clear
4:53 PM 93.9 °F - 52.0 °F 24% 29.90 in 10.0 mi ENE 17.3 mph - N/A   Clear
5:53 PM 93.0 °F - 50.0 °F 23% 29.90 in 10.0 mi East 8.1 mph - N/A   Clear
6:53 PM 93.0 °F - 52.0 °F 25% 29.88 in 10.0 mi East 9.2 mph - N/A   Clear
7:53 PM 86.0 °F 84.9 °F 57.0 °F 37% 29.89 in 10.0 mi ESE 6.9 mph - N/A   Clear
8:53 PM 78.1 °F - 57.0 °F 48% 29.92 in 10.0 mi SE 5.8 mph - N/A   Clear
9:53 PM 75.9 °F - 57.0 °F 52% 29.95 in 10.0 mi East 6.9 mph - N/A   Clear
10:53 PM 75.0 °F - 59.0 °F 57% 29.94 in 10.0 mi SSE 9.2 mph - N/A   Clear
11:53 PM 73.0 °F - 59.0 °F 61% 29.98 in 10.0 mi NE 4.6 mph - N/A   Clear